Simultaneous Nadir Overpasses (SNOs) Predictions

Prediction of SNOs between AQUA and METOP-C Satellite Orbit:

Table of predicted SNOs for the next 14.0 days since TLE Epoch: 7/10/2021
Index Date (AQUA) Time (AQUA) Lat,Lon (AQUA) SZA (AQUA ) Date (METOP-C) Time (METOP-C) Lat,Lon (METOP-C) SZA (METOP-C ) Distance(km) Time Diff (sec)
1 07/11/2021 03:33:46 73.75, 120.92 51.72 07/11/2021 03:33:16 73.75, 120.95 51.72 1.22 30
2 07/11/2021 04:23:12 -73.79, -71.51 128.24 07/11/2021 04:23:57 -73.81, -71.58 128.22 3.19 45
3 07/13/2021 23:08:02 73.73,-172.61 52.11 07/13/2021 23:07:37 73.75,-172.63 52.13 2.05 25
4 07/13/2021 23:57:29 -73.82, -5.15 127.80 07/13/2021 23:58:18 -73.81, -5.17 127.81 1.06 49
5 07/16/2021 17:52:38 -73.13, 87.45 128.09 07/16/2021 17:51:31 -73.08, 84.94 128.02 81.46 67
6 07/16/2021 18:42:18 73.77,-106.27 52.61 07/16/2021 18:41:57 73.75,-106.21 52.59 2.79 21
7 07/16/2021 19:31:44 -73.80, 61.31 127.36 07/16/2021 19:32:38 -73.81, 61.24 127.36 2.31 54
8 07/19/2021 13:26:58 -73.33, 153.48 127.38 07/19/2021 13:25:48 -73.28, 151.78 127.35 54.61 70
9 07/19/2021 14:16:34 73.77, -39.82 53.10 07/19/2021 14:16:18 73.75, -39.80 53.09 1.63 16
10 07/19/2021 15:06:01 -73.85, 127.65 126.81 07/19/2021 15:06:58 -73.85, 127.76 126.82 3.41 57
11 07/22/2021 09:01:17 -73.49,-140.41 126.67 07/22/2021 09:00:06 -73.42,-141.49 126.67 35.01 71
12 07/22/2021 09:50:50 73.77, 26.62 53.64 07/22/2021 09:50:39 73.75, 26.60 53.63 1.84 11
13 07/22/2021 10:40:17 -73.84,-165.91 126.27 07/22/2021 10:41:19 -73.85,-165.85 126.28 1.90 62



Historial Predications of SNOs between AQUA and METOP-C
